#timestamp,LO_Frequency,Hit,Temp,Hum 
1480003215.6,286046967.3,N,0.0,0.0
1480003235.4,286046967.1,N,0.0,0.0
1480003255.2,286046966.6,N,0.0,0.0
1480003275.1,286046966.7,N,0.0,0.0
1480003276.0,286046966.7,N,0.0,0.0
1480003295.8,286046967.3,N,0.0,0.0
1480003315.7,286046967.5,N,0.0,0.0
1480003335.5,286046964.7,N,0.0,0.0
1480003355.3,286046965.4,N,0.0,0.0
1480003375.2,286046965.8,N,0.0,0.0
1480003395.0,286046965.8,N,0.0,0.0
1480003395.9,286046965.8,N,0.0,0.0
1480003415.8,286046965.7,N,0.0,0.0
1480003435.6,286046966.0,N,0.0,0.0
1480003455.4,286046965.6,N,0.0,0.0
1480003475.3,286046965.6,N,0.0,0.0
1480003495.1,286046965.6,N,0.0,0.0
1480003515.8,286046965.8,N,0.0,0.0
1480003535.7,286046965.2,N,0.0,0.0
1480003555.5,286046965.2,N,0.0,0.0
1480003575.4,286046965.3,N,0.0,0.0
1480003595.2,286046962.9,N,0.0,0.0
1480003615.0,286046963.6,N,0.0,0.0
1480003615.9,286046963.6,N,0.0,0.0
1480003635.8,286046963.8,N,0.0,0.0
1480003655.6,286046963.2,N,0.0,0.0
1480003675.4,286046963.4,N,0.0,0.0
1480003695.3,286046965.9,N,0.0,0.0
1480003715.1,286046965.2,N,0.0,0.0
1480003735.9,286046964.5,N,0.0,0.0
1480003755.7,286046964.5,N,0.0,0.0
1480003775.5,286046967.3,N,0.0,0.0
1480003795.4,286046966.3,N,0.0,0.0
1480003815.2,286046966.2,N,0.0,0.0
1480003835.1,286046968.5,N,0.0,0.0
1480003836.0,286046968.5,N,0.0,0.0
1480003855.8,286046967.9,N,0.0,0.0
1480003875.6,286046969.0,N,0.0,0.0
1480003895.5,286046969.1,N,0.0,0.0
1480003915.3,286046969.1,N,0.0,0.0
1480003935.1,286046968.3,N,0.0,0.0
1480003955.9,286046970.4,N,0.0,0.0
1480003975.7,286046970.4,N,0.0,0.0
1480003995.6,286046970.8,N,0.0,0.0
1480004015.4,286046968.9,N,0.0,0.0
1480004035.2,286046968.8,N,0.0,0.0
1480004055.1,286046966.2,N,0.0,0.0
1480004056.0,286046966.2,N,0.0,0.0
1480004075.8,286046969.0,N,0.0,0.0
1480004095.7,286046968.4,N,0.0,0.0
1480004115.5,286046968.2,N,0.0,0.0
1480004135.3,286046970.7,N,0.0,0.0
1480004155.2,286046970.8,N,0.0,0.0
1480004175.0,286046970.3,N,0.0,0.0
1480004175.9,286046970.3,N,0.0,0.0
1480004195.8,286046970.1,N,0.0,0.0
1480004215.6,286046969.3,N,0.0,0.0
1480004235.4,286046969.5,N,0.0,0.0
1480004255.3,286046970.5,N,0.0,0.0
1480004275.1,286046970.6,N,0.0,0.0
1480004295.8,286046970.6,N,0.0,0.0
1480004315.7,286046970.1,N,0.0,0.0
1480004335.5,286046971.9,N,0.0,0.0
1480004355.4,286046971.0,N,0.0,0.0
1480004375.2,286046971.3,N,0.0,0.0
1480004395.0,286046971.5,N,0.0,0.0
1480004395.9,286046971.5,N,0.0,0.0
1480004415.8,286046971.7,N,0.0,0.0
1480004435.6,286046972.0,N,0.0,0.0
1480004455.5,286046972.2,N,0.0,0.0
1480004475.3,286046971.4,N,0.0,0.0
1480004495.1,286046973.9,N,0.0,0.0
1480004515.9,286046974.0,N,0.0,0.0
1480004535.7,286046973.7,N,0.0,0.0
1480004555.5,286046973.2,N,0.0,0.0
1480004575.4,286046973.4,N,0.0,0.0
1480004595.2,286046973.3,N,0.0,0.0
1480004615.1,286046973.2,N,0.0,0.0
1480004616.0,286046973.2,N,0.0,0.0
1480004635.8,286046973.8,N,0.0,0.0
1480004655.6,286046973.4,N,0.0,0.0
1480004675.5,286046973.1,N,0.0,0.0
1480004695.3,286046972.7,N,0.0,0.0
1480004715.1,286046972.5,N,0.0,0.0
1480004735.9,286046974.7,N,0.0,0.0
1480004755.7,286046975.0,N,0.0,0.0
1480004775.6,286046974.8,N,0.0,0.0
1480004795.4,286046974.3,N,0.0,0.0
1480004815.2,286046974.6,N,0.0,0.0
1480004835.1,286046975.3,N,0.0,0.0
1480004836.0,286046975.3,N,0.0,0.0
1480004855.8,286046974.9,N,0.0,0.0
1480004875.7,286046977.1,N,0.0,0.0
1480004895.5,286046977.0,N,0.0,0.0
1480004915.3,286046976.3,N,0.0,0.0
1480004935.2,286046976.5,N,0.0,0.0
1480004955.0,286046976.4,N,0.0,0.0
1480004955.9,286046976.4,N,0.0,0.0
1480004975.7,286046976.0,N,0.0,0.0
1480004995.6,286046975.7,N,0.0,0.0
1480005015.4,286046978.7,N,0.0,0.0
1480005035.3,286046978.8,N,0.0,0.0
1480005055.1,286046978.5,N,0.0,0.0
1480005075.8,286046978.3,N,0.0,0.0
1480005095.7,286046975.7,N,0.0,0.0
1480005115.5,286046978.4,N,0.0,0.0
1480005135.4,286046978.3,N,0.0,0.0
1480005155.2,286046978.0,N,0.0,0.0
1480005175.0,286046977.7,N,0.0,0.0
1480005175.9,286046977.7,N,0.0,0.0
1480005195.8,286046977.7,N,0.0,0.0
1480005215.6,286046977.5,N,0.0,0.0
1480005235.4,286046978.1,N,0.0,0.0
1480005255.3,286046978.6,N,0.0,0.0
1480005275.1,286046977.5,N,0.0,0.0
1480005295.9,286046978.2,N,0.0,0.0
1480005315.7,286046978.6,N,0.0,0.0
1480005335.5,286046978.6,N,0.0,0.0
1480005355.4,286046978.5,N,0.0,0.0
1480005375.2,286046978.0,N,0.0,0.0
1480005395.1,286046977.9,N,0.0,0.0
1480005396.0,286046977.9,N,0.0,0.0
1480005415.8,286046977.4,N,0.0,0.0
1480005435.6,286046980.2,N,0.0,0.0
1480005455.5,286046979.7,N,0.0,0.0
1480005475.3,286046979.4,N,0.0,0.0
1480005495.2,286046980.2,N,0.0,0.0
1480005515.9,286046979.8,N,0.0,0.0
1480005535.7,286046979.5,N,0.0,0.0
1480005555.6,286046979.6,N,0.0,0.0
1480005575.4,286046979.1,N,0.0,0.0
1480005595.2,286046979.7,N,0.0,0.0
1480005615.1,286046979.9,N,0.0,0.0
1480005616.0,286046979.9,N,0.0,0.0
1480005635.8,286046982.0,N,0.0,0.0
1480005655.7,286046981.6,N,0.0,0.0
1480005675.5,286046981.5,N,0.0,0.0
1480005695.3,286046979.6,N,0.0,0.0
1480005715.2,286046979.0,N,0.0,0.0
1480005735.0,286046978.9,N,0.0,0.0
1480005735.9,286046978.9,N,0.0,0.0
1480005755.8,286046981.2,N,0.0,0.0
1480005775.6,286046981.0,N,0.0,0.0
1480005795.4,286046980.8,N,0.0,0.0
1480005815.3,286046979.0,N,0.0,0.0
1480005835.1,286046981.6,N,0.0,0.0
1480005855.8,286046981.2,N,0.0,0.0
1480005875.7,286046981.3,N,0.0,0.0
1480005895.5,286046982.0,N,0.0,0.0
1480005915.4,286046979.0,N,0.0,0.0
1480005935.2,286046981.6,N,0.0,0.0
1480005955.0,286046981.4,N,0.0,0.0
1480005955.9,286046981.4,N,0.0,0.0
1480005975.8,286046981.9,N,0.0,0.0
1480005995.6,286046981.4,N,0.0,0.0
1480006015.5,286046980.7,N,0.0,0.0
1480006035.3,286046983.0,N,0.0,0.0
1480006055.1,286046982.6,N,0.0,0.0
1480006075.9,286046984.7,N,0.0,0.0
1480006095.7,286046984.8,N,0.0,0.0
1480006115.5,286046984.9,N,0.0,0.0
1480006135.4,286046984.6,N,0.0,0.0
1480006155.2,286046984.2,N,0.0,0.0
1480006175.1,286046984.0,N,0.0,0.0
1480006176.0,286046984.0,N,0.0,0.0
1480006195.8,286046984.9,N,0.0,0.0
1480006215.6,286046984.9,N,0.0,0.0
1480006235.5,286046982.8,N,0.0,0.0
1480006255.3,286046982.3,N,0.0,0.0
1480006275.2,286046982.6,N,0.0,0.0
1480006295.9,286046985.0,N,0.0,0.0
1480006315.7,286046983.8,N,0.0,0.0
1480006335.6,286046982.1,N,0.0,0.0
1480006355.4,286046985.1,N,0.0,0.0
1480006375.2,286046983.9,N,0.0,0.0
1480006395.1,286046983.7,N,0.0,0.0
1480006396.0,286046983.7,N,0.0,0.0
1480006415.8,286046985.0,N,0.0,0.0
1480006435.7,286046984.2,N,0.0,0.0
1480006455.5,286046982.2,N,0.0,0.0
1480006475.3,286046982.5,N,0.0,0.0
1480006495.2,286046985.1,N,0.0,0.0
1480006515.0,286046986.4,N,0.0,0.0
1480006515.9,286046986.4,N,0.0,0.0
1480006535.8,286046986.5,N,0.0,0.0
1480006555.6,286046986.8,N,0.0,0.0
1480006575.4,286046986.4,N,0.0,0.0
1480006595.3,286046983.8,N,0.0,0.0
1480006615.1,286046986.8,N,0.0,0.0
1480006635.9,286046984.5,N,0.0,0.0
1480006655.7,286046984.6,N,0.0,0.0
1480006675.5,286046985.2,N,0.0,0.0
1480006695.4,286046985.1,N,0.0,0.0
1480006715.2,286046984.5,N,0.0,0.0
1480006735.0,286046984.3,N,0.0,0.0
1480006735.9,286046984.3,N,0.0,0.0
1480006755.8,286046984.3,N,0.0,0.0
1480006775.6,286046983.8,N,0.0,0.0
1480006795.5,286046986.8,N,0.0,0.0
